1513897200.66,57126,7.56,73446.0,-12.51,-13.93,-13.83,0,*61
1513897201.93,57127,7.56,73432.8,-12.51,-13.83,-13.83,0,*61
1513897203.24,57128,7.56,73426.0,-12.53,-13.97,-13.97,0,*6C
1513897204.54,57129,7.56,73420.5,-12.53,-13.87,-13.97,0,*6C
1513897205.84,57130,7.56,73416.0,-12.53,-13.97,-14.01,0,*6D
1513897207.14,57131,7.56,73414.0,-12.53,-13.87,-13.97,0,*65
1513897208.44,57132,7.56,73408.8,-12.53,-13.87,-13.97,0,*66
1513897209.71,57133,7.56,73416.3,-12.55,-13.97,-13.87,0,*61
1513897211.02,57134,7.56,73416.8,-12.53,-13.97,-13.97,0,*61
1513897212.29,57135,7.56,73418.8,-12.55,-13.87,-13.97,0,*67
1513897213.56,57136,7.56,73422.0,-12.55,-13.87,-13.97,0,*64
1513897214.84,57137,7.56,73382.5,-12.55,-13.97,-13.97,0,*64
1513897216.11,57138,7.56,73370.5,-12.55,-13.87,-13.87,0,*6B
1513897217.38,57139,7.56,73400.3,-12.55,-13.83,-13.87,0,*6E
1513897218.64,57140,7.56,73406.5,-12.55,-13.87,-13.87,0,*64
1513897219.94,57141,7.56,73378.0,-12.53,-13.83,-13.83,0,*63
1513897221.19,57142,7.56,73410.5,-12.55,-13.83,-13.73,0,*69
1513897222.45,57143,7.56,73432.3,-12.55,-13.87,-13.83,0,*63
1513897223.7,57144,7.56,73402.5,-12.53,-13.73,-13.73,0,*66
1513897224.93,57145,7.56,73396.8,-12.55,-13.61,-13.69,0,*69
1513897226.17,57146,7.56,73414.3,-12.55,-13.61,-13.69,0,*6A
1513897227.39,57147,7.56,73388.3,-12.55,-13.69,-13.69,0,*63
1513897228.63,57148,7.56,73406.0,-12.53,-13.69,-13.69,0,*6A
1513897229.9,57149,7.56,73394.8,-12.55,-13.61,-13.61,0,*6D
1513897231.14,57150,7.56,73386.3,-12.55,-13.69,-13.61,0,*6D
1513897232.38,57151,7.56,73384.5,-12.53,-13.69,-13.69,0,*62
1513897233.68,57152,7.56,73342.5,-12.53,-13.83,-13.83,0,*61
1513897234.95,57153,7.56,73398.0,-12.55,-13.83,-13.83,0,*66
1513897236.22,57154,7.56,73424.8,-12.55,-13.83,-13.83,0,*61
1513897237.49,57155,7.56,73376.8,-12.53,-13.73,-13.83,0,*69
1513897238.73,57156,7.56,73374.0,-12.55,-13.73,-13.83,0,*6C
1513897239.95,57157,7.56,73366.3,-12.55,-13.73,-13.69,0,*69
1513897241.16,57158,7.56,73354.5,-12.55,-13.73,-13.73,0,*6D
1513897242.38,57159,7.56,73410.5,-12.55,-13.69,-13.73,0,*67
1513897243.6,57160,7.56,73400.3,-12.55,-13.69,-13.73,0,*6D
1513897244.83,57161,7.56,73386.8,-12.55,-13.61,-13.69,0,*6F
1513897246.1,57162,7.56,73370.3,-12.55,-13.61,-13.61,0,*64
1513897247.38,57163,7.56,73376.3,-12.55,-13.61,-13.61,0,*65
1513897248.65,57164,7.63,73380.5,-12.55,-13.61,-13.61,0,*62
1513897249.92,57165,7.56,73404.8,-12.53,-13.55,-13.61,0,*62
1513897251.16,57166,7.56,73354.5,-12.55,-13.69,-13.61,0,*68
1513897252.43,57167,7.56,73374.5,-12.55,-13.61,-13.61,0,*61
1513897253.71,57168,7.56,73394.5,-12.55,-13.61,-13.61,0,*6E
1513897254.95,57169,7.56,73386.0,-12.53,-13.55,-13.55,0,*69
1513897256.19,57170,7.56,73348.0,-12.53,-13.47,-13.55,0,*62
1513897257.41,57171,7.56,73406.0,-12.55,-13.47,-13.55,0,*65
1513897258.65,57172,7.56,73390.8,-12.53,-13.47,-13.47,0,*63
1513897259.87,57173,7.56,73364.3,-12.53,-13.47,-13.47,0,*62
1513897261.11,57174,7.56,73366.8,-12.53,-13.47,-13.47,0,*65
1513897262.32,57175,7.56,73350.8,-12.55,-13.47,-13.47,0,*62
1513897263.55,57176,7.56,73380.8,-12.53,-13.47,-13.47,0,*67
1513897264.76,57177,7.56,73424.3,-12.55,-13.47,-13.47,0,*60
1513897265.99,57178,7.56,73358.5,-12.53,-13.47,-13.47,0,*69
1513897267.22,57179,7.56,73390.0,-12.53,-13.47,-13.47,0,*68
1513897268.47,57180,7.56,73412.5,-12.53,-13.43,-13.43,0,*6E
1513897269.7,57181,7.56,73412.5,-12.53,-13.47,-13.43,0,*6B
1513897270.92,57182,7.56,73420.5,-12.51,-13.43,-13.51,0,*6D
1513897272.14,57183,7.56,73422.8,-12.51,-13.51,-13.51,0,*6F
1513897273.39,57184,7.56,73414.8,-12.49,-13.51,-13.55,0,*65
1513897274.61,57185,7.56,73422.8,-12.51,-13.65,-13.55,0,*6A
1513897275.82,57186,7.56,73414.0,-12.51,-13.65,-13.55,0,*69
1513897277.04,57187,7.56,73418.3,-12.51,-13.65,-13.55,0,*68
1513897278.3,57188,7.56,73426.3,-12.53,-13.61,-13.69,0,*6E
1513897279.55,57189,7.56,73428.3,-12.53,-13.69,-13.73,0,*6C
1513897280.81,57190,7.56,73430.0,-12.53,-13.73,-13.83,0,*60
1513897282.09,57191,7.56,73426.5,-12.53,-13.83,-13.73,0,*61
1513897283.38,57192,7.56,73428.0,-12.53,-13.83,-13.83,0,*6D
1513897284.68,57193,7.56,73426.8,-12.53,-13.83,-13.87,0,*68
1513897285.95,57194,7.63,73434.3,-12.53,-13.73,-13.87,0,*60
1513897287.22,57195,7.56,73426.8,-12.55,-13.87,-13.97,0,*6D
1513897288.51,57196,7.56,73430.8,-12.53,-13.87,-13.87,0,*69
1513897289.8,57197,7.56,73426.8,-12.53,-13.87,-13.87,0,*68
1513897291.1,57198,7.56,73424.8,-12.53,-13.87,-14.01,0,*6E
1513897292.4,57199,7.56,73432.8,-12.53,-13.97,-13.87,0,*67
1513897293.66,57200,7.56,73430.0,-12.55,-13.87,-13.87,0,*63
1513897294.93,57201,7.56,73436.5,-12.55,-13.83,-13.87,0,*66
1513897296.2,57202,7.56,73436.0,-12.55,-13.83,-13.87,0,*65
1513897297.49,57203,7.56,73446.3,-12.53,-13.87,-13.87,0,*66
1513897298.76,57204,7.56,73440.8,-12.55,-13.87,-13.87,0,*67
1513897300.03,57205,7.56,73446.5,-12.55,-13.97,-13.87,0,*67
1513897301.3,57206,7.56,73442.5,-12.55,-13.97,-13.87,0,*64
1513897302.6,57207,7.56,73448.8,-12.53,-13.87,-13.97,0,*63
1513897303.9,57208,7.56,73448.0,-12.57,-13.97,-13.87,0,*68
1513897305.19,57209,7.56,73442.5,-12.57,-13.87,-13.97,0,*69
1513897306.49,57210,7.56,73448.5,-12.57,-13.83,-13.97,0,*65
1513897307.79,57211,7.56,73454.3,-12.57,-13.87,-13.97,0,*60
1513897309.09,57212,7.56,73452.8,-12.57,-13.97,-13.97,0,*62
1513897310.38,57213,7.56,73452.0,-12.57,-13.87,-13.87,0,*63
1513897311.67,57214,7.56,73454.3,-12.57,-13.87,-13.97,0,*65
1513897312.98,57215,7.56,73462.8,-12.57,-13.97,-13.97,0,*65
1513897314.28,57216,7.56,73448.0,-12.57,-13.97,-14.01,0,*6E
1513897315.52,57217,7.56,73448.5,-12.59,-13.87,-13.93,0,*6C
1513897316.77,57218,7.56,73440.8,-12.59,-13.93,-14.01,0,*6A
1513897317.98,57219,7.56,73444.5,-12.59,-13.93,-13.93,0,*67
1513897319.19,57220,7.56,73442.3,-12.59,-13.93,-13.93,0,*6D
1513897320.48,57221,7.56,73440.0,-12.57,-13.87,-13.87,0,*62
1513897321.73,57222,7.56,73444.0,-12.59,-13.93,-14.01,0,*63
1513897323.02,57223,7.56,73444.0,-12.57,-13.87,-13.97,0,*61
1513897324.31,57224,7.56,73442.5,-12.57,-13.87,-13.87,0,*67
1513897325.56,57225,7.56,73452.3,-12.59,-14.01,-13.93,0,*64
1513897326.77,57226,7.56,73434.5,-12.59,-13.93,-13.93,0,*6B
1513897328.01,57227,7.56,73434.8,-12.59,-13.93,-13.87,0,*6F
1513897329.25,57228,7.56,73454.3,-12.59,-13.79,-13.93,0,*61
1513897330.49,57229,7.56,73442.0,-12.59,-13.87,-13.93,0,*61
1513897331.78,57230,7.56,73434.8,-12.57,-13.83,-13.87,0,*66
1513897333.02,57231,7.56,73436.3,-12.59,-13.87,-13.93,0,*68
1513897334.26,57232,7.56,73436.8,-12.59,-13.87,-13.93,0,*6B
1513897335.53,57233,7.56,73442.0,-12.59,-13.79,-13.87,0,*6E
1513897336.79,57234,7.56,73436.5,-12.59,-13.87,-13.79,0,*69
1513897338.06,57235,7.56,73432.3,-12.59,-13.87,-13.87,0,*69
1513897339.3,57236,7.56,73424.5,-12.59,-13.87,-13.93,0,*6F
1513897340.56,57237,7.56,73438.3,-12.59,-13.79,-13.79,0,*6B
1513897341.83,57238,7.56,73432.8,-12.59,-13.79,-13.79,0,*64
1513897343.09,57239,7.56,73436.5,-12.59,-13.87,-13.87,0,*65
1513897344.36,57240,7.56,73434.8,-12.59,-13.87,-13.79,0,*6A
1513897345.62,57241,7.56,73428.3,-12.59,-13.87,-13.79,0,*6B
1513897346.89,57242,7.56,73434.8,-12.59,-13.87,-13.87,0,*69
1513897348.15,57243,7.56,73444.0,-12.59,-13.87,-13.87,0,*68
1513897349.39,57244,7.56,73442.5,-12.59,-13.87,-13.93,0,*6A
1513897350.66,57245,7.56,73448.8,-12.59,-13.87,-13.87,0,*6E
1513897351.93,57246,7.56,73440.0,-12.63,-13.87,-13.87,0,*64
1513897353.2,57247,7.56,73446.8,-12.63,-13.87,-13.87,0,*65
1513897354.47,57248,7.56,73448.8,-12.63,-13.87,-13.87,0,*6A
1513897355.73,57249,7.56,73456.5,-12.63,-13.87,-13.87,0,*6B
1513897357.0,57250,7.56,73454.8,-12.63,-13.79,-13.87,0,*62
1513897358.24,57251,7.56,73458.3,-12.63,-13.87,-13.93,0,*67
1513897359.52,57252,7.56,73452.8,-12.63,-13.87,-14.01,0,*68
1513897360.76,57253,7.56,73458.3,-12.63,-13.93,-13.97,0,*64
1513897362.03,57254,7.56,73460.8,-12.63,-13.87,-13.87,0,*67
1513897363.3,57255,7.56,73472.8,-12.63,-13.79,-13.79,0,*66
1513897364.59,57256,7.56,73458.0,-12.65,-13.83,-13.83,0,*63
1513897365.83,57257,7.56,73452.8,-12.63,-13.73,-13.79,0,*6E
1513897367.1,57258,7.56,73446.5,-12.63,-13.79,-13.87,0,*6A
1513897368.36,57259,7.56,73444.3,-12.65,-13.79,-13.73,0,*66
1513897369.58,57260,7.56,73432.3,-12.63,-13.65,-13.65,0,*60
1513897370.82,57261,7.56,73442.8,-12.65,-13.69,-13.65,0,*6B
1513897372.04,57262,7.56,73430.5,-12.63,-13.65,-13.73,0,*65
1513897373.25,57263,7.56,73416.8,-12.59,-13.65,-13.65,0,*6A
1513897374.47,57264,7.56,73432.3,-12.59,-13.73,-13.65,0,*6A
1513897375.69,57265,7.56,73442.5,-12.59,-13.65,-13.73,0,*6B
1513897376.96,57266,7.56,73426.5,-12.63,-13.79,-13.87,0,*67
1513897378.25,57267,7.56,73430.5,-12.65,-13.83,-13.83,0,*61
1513897379.51,57268,7.56,73410.3,-12.63,-13.79,-13.79,0,*68
1513897380.78,57269,7.56,73426.3,-12.63,-13.79,-13.79,0,*69
1513897382.04,57270,7.56,73440.5,-12.63,-13.79,-13.79,0,*61
1513897383.31,57271,7.56,73448.3,-12.63,-13.79,-13.87,0,*61
1513897384.57,57272,7.56,73432.5,-12.63,-13.87,-13.87,0,*63
1513897385.82,57273,7.56,73426.0,-12.63,-13.87,-13.93,0,*67
1513897387.06,57274,7.56,73434.8,-12.63,-13.87,-13.93,0,*60
1513897388.3,57275,7.56,73436.0,-12.63,-13.87,-13.93,0,*61
1513897389.54,57276,7.56,73422.0,-12.63,-13.87,-13.93,0,*62
1513897390.78,57277,7.56,73428.3,-12.63,-13.87,-13.93,0,*63
1513897392.02,57278,7.56,73426.5,-12.63,-13.87,-13.93,0,*6C
1513897393.32,57279,7.56,73444.3,-12.65,-13.83,-13.83,0,*6E
1513897394.56,57280,7.56,73450.0,-12.63,-13.73,-13.87,0,*65
1513897395.83,57281,7.56,73444.0,-12.63,-13.79,-13.87,0,*6E
1513897397.11,57282,7.56,73442.3,-12.65,-13.79,-13.79,0,*6A
1513897398.33,57283,7.56,73448.5,-12.63,-13.65,-13.73,0,*6A
1513897399.55,57284,7.56,73392.0,-12.63,-13.69,-13.69,0,*6A
1513897400.78,57285,7.56,73406.5,-12.65,-13.65,-13.65,0,*6D
1513897402.06,57286,7.56,73424.5,-12.63,-13.61,-13.61,0,*68
1513897403.31,57287,7.56,73438.5,-12.63,-13.51,-13.61,0,*6A
1513897404.59,57288,7.56,73434.0,-12.63,-13.61,-13.61,0,*66
1513897405.8,57289,7.56,73430.3,-12.63,-13.65,-13.73,0,*60
1513897407.02,57290,7.56,73436.0,-12.63,-13.65,-13.65,0,*6F
1513897408.24,57291,7.56,73438.8,-12.63,-13.65,-13.73,0,*69
1513897409.46,57292,7.56,73440.8,-12.63,-13.73,-13.65,0,*6A
1513897410.71,57293,7.56,73430.5,-12.63,-13.61,-13.65,0,*68
1513897411.93,57294,7.56,73430.5,-12.63,-13.51,-13.51,0,*6B
1513897413.15,57295,7.56,73434.8,-12.63,-13.43,-13.43,0,*6A
1513897414.4,57296,7.56,73428.5,-12.63,-13.43,-13.29,0,*65
1513897415.62,57297,7.56,73416.5,-12.63,-13.19,-13.15,0,*64
1513897416.86,57298,7.56,73392.3,-12.59,-13.07,-13.01,0,*68
1513897418.13,57299,7.56,73396.0,-12.59,-13.01,-13.01,0,*6F
1513897419.37,57300,7.56,73400.8,-12.57,-12.97,-12.97,0,*60
1513897420.66,57301,7.56,73396.3,-12.57,-13.01,-13.01,0,*61
1513897421.92,57302,7.56,73380.8,-12.57,-13.11,-13.01,0,*63
1513897423.16,57303,7.56,73404.0,-12.57,-13.11,-13.11,0,*63
1513897424.38,57304,7.56,73432.3,-12.59,-13.15,-13.15,0,*6A
1513897425.62,57305,7.56,73428.3,-12.57,-13.11,-13.11,0,*65
1513897426.86,57306,7.56,73440.3,-12.55,-13.01,-13.11,0,*65
1513897428.07,57307,7.56,73428.3,-12.55,-13.15,-13.15,0,*65
1513897429.34,57308,7.56,73376.8,-12.55,-13.29,-13.29,0,*6A
1513897430.63,57309,7.56,73440.0,-12.53,-13.29,-13.29,0,*6D
1513897431.93,57310,7.56,73420.8,-12.53,-13.29,-13.29,0,*65
1513897433.2,57311,7.56,73420.8,-12.55,-13.37,-13.37,0,*62
1513897434.44,57312,7.56,73410.8,-12.53,-13.43,-13.43,0,*67
1513897435.65,57313,7.56,73412.0,-12.55,-13.47,-13.55,0,*63
1513897436.9,57314,7.56,73410.3,-12.53,-13.55,-13.55,0,*61
1513897438.19,57315,7.56,73416.3,-12.53,-13.61,-13.61,0,*60
1513897439.44,57316,7.56,73432.8,-12.53,-13.55,-13.55,0,*63
1513897440.71,57317,7.56,73426.0,-12.53,-13.55,-13.61,0,*65
1513897441.98,57318,7.63,73430.0,-12.53,-13.61,-13.55,0,*6A
1513897443.22,57319,7.56,73426.0,-12.55,-13.61,-13.55,0,*6D
1513897444.44,57320,7.56,73418.5,-12.55,-13.55,-13.55,0,*60
1513897445.68,57321,7.56,73416.0,-12.53,-13.47,-13.47,0,*67
1513897446.91,57322,7.56,73424.5,-12.53,-13.47,-13.47,0,*64
1513897448.15,57323,7.56,73430.8,-12.53,-13.43,-13.47,0,*61
1513897449.41,57324,7.56,73424.0,-12.53,-13.37,-13.43,0,*61
1513897450.66,57325,7.56,73422.3,-12.53,-13.43,-13.43,0,*63
1513897451.92,57326,7.56,73388.8,-12.53,-13.37,-13.43,0,*63
1513897453.16,57327,7.56,73386.5,-12.53,-13.43,-13.47,0,*65
1513897454.37,57328,7.56,73392.3,-12.55,-13.43,-13.47,0,*6C
1513897455.58,57329,7.56,73418.0,-12.55,-13.43,-13.47,0,*6D
1513897456.88,57330,7.56,73408.3,-12.53,-13.37,-13.37,0,*67
1513897458.14,57331,7.56,73406.8,-12.51,-13.33,-13.37,0,*60
1513897459.38,57332,7.56,73396.5,-12.53,-13.43,-13.43,0,*65
1513897460.62,57333,7.56,73408.8,-12.51,-13.37,-13.43,0,*65
1513897461.86,57334,7.56,73434.0,-12.49,-13.43,-13.43,0,*68
1513897463.09,57335,7.56,73376.8,-12.53,-13.47,-13.47,0,*62
1513897464.36,57336,7.56,73418.8,-12.53,-13.37,-13.43,0,*62
1513897465.57,57337,7.56,73422.3,-12.55,-13.43,-13.43,0,*66
1513897466.87,57338,7.56,73442.5,-12.53,-13.37,-13.37,0,*6F
1513897468.11,57339,7.56,73388.0,-12.53,-13.43,-13.43,0,*6E
1513897469.35,57340,7.56,73390.8,-12.53,-13.43,-13.43,0,*60
1513897470.59,57341,7.56,73384.5,-12.53,-13.43,-13.43,0,*61
1513897471.85,57342,7.56,73374.0,-12.51,-13.37,-13.37,0,*60
1513897473.1,57343,7.56,73372.3,-12.51,-13.37,-13.43,0,*62
1513897474.36,57344,7.56,73392.8,-12.51,-13.37,-13.37,0,*66
1513897475.62,57345,7.56,73416.5,-12.49,-13.37,-13.43,0,*6D
1513897476.84,57346,7.56,73346.0,-12.51,-13.43,-13.43,0,*64
1513897478.11,57347,7.56,73364.0,-12.51,-13.37,-13.37,0,*65
1513897479.4,57348,7.56,73396.0,-12.49,-13.37,-13.37,0,*63
1513897480.64,57349,7.56,73390.0,-12.51,-13.43,-13.37,0,*68
1513897481.85,57350,7.56,73406.0,-12.51,-13.43,-13.43,0,*63
1513897483.06,57351,7.56,73394.5,-12.51,-13.43,-13.43,0,*62
1513897484.31,57352,7.56,73396.3,-12.49,-13.51,-13.51,0,*68
1513897485.55,57353,7.56,73360.5,-12.49,-13.55,-13.51,0,*6D
1513897486.78,57354,7.56,73352.8,-12.51,-13.51,-13.43,0,*64
1513897487.99,57355,7.56,73354.8,-12.51,-13.43,-13.51,0,*65
1513897489.22,57356,7.56,73340.0,-12.51,-13.51,-13.51,0,*65
1513897490.44,57357,7.56,73354.5,-12.51,-13.43,-13.55,0,*63
1513897491.66,57358,7.56,73366.3,-12.51,-13.51,-13.51,0,*6B
1513897492.88,57359,7.56,73392.0,-12.51,-13.51,-13.51,0,*6A
1513897494.11,57360,7.56,73392.3,-12.51,-13.51,-13.51,0,*60
1513897495.35,57361,7.56,73398.5,-12.49,-13.51,-13.43,0,*6B
1513897496.57,57362,7.56,73400.0,-12.51,-13.43,-13.43,0,*62
1513897497.83,57363,7.56,73404.0,-12.51,-13.33,-13.33,0,*63
1513897499.08,57364,7.56,73372.5,-12.51,-13.23,-13.33,0,*65
1513897500.37,57365,7.56,73386.8,-12.49,-13.33,-13.33,0,*6C
1513897501.66,57366,7.56,73388.5,-12.49,-13.37,-13.37,0,*6F
1513897502.95,57367,7.56,73384.5,-12.49,-13.37,-13.37,0,*6E
1513897504.24,57368,7.56,73370.0,-12.49,-13.37,-13.37,0,*61
1513897505.46,57369,7.56,73380.5,-12.51,-13.43,-13.43,0,*69
1513897506.7,57370,7.56,73394.8,-12.49,-13.43,-13.51,0,*6B
1513897507.94,57371,7.56,73428.5,-12.49,-13.43,-13.43,0,*69
1513897509.15,57372,7.56,73384.3,-12.51,-13.43,-13.43,0,*63
1513897510.41,57373,7.56,73358.8,-12.49,-13.43,-13.37,0,*68
1513897511.68,57374,7.56,73322.3,-12.49,-13.43,-13.37,0,*6F
1513897512.97,57375,7.56,73376.0,-12.49,-13.37,-13.37,0,*6D
1513897514.26,57376,7.56,73402.8,-12.49,-13.37,-13.37,0,*6E
1513897515.52,57377,7.56,73412.0,-12.49,-13.37,-13.43,0,*6C
1513897516.78,57378,7.56,73404.3,-12.49,-13.33,-13.43,0,*67
1513897518.05,57379,7.56,73416.8,-12.49,-13.37,-13.43,0,*62
1513897519.31,57380,7.56,73414.8,-12.49,-13.37,-13.43,0,*64
1513897520.55,57381,7.56,73422.5,-12.49,-13.43,-13.43,0,*66
1513897521.81,57382,7.56,73394.5,-12.49,-13.43,-13.37,0,*66
1513897523.11,57383,7.56,73390.0,-12.45,-13.37,-13.33,0,*6C
1513897524.35,57384,7.56,73386.5,-12.49,-13.51,-13.55,0,*67
1513897525.6,57385,7.56,73350.3,-12.49,-13.51,-13.51,0,*62
1513897526.84,57386,7.56,73334.0,-12.49,-13.51,-13.65,0,*66
1513897528.08,57387,7.56,73406.8,-12.49,-13.65,-13.65,0,*60
1513897529.32,57388,7.56,73390.8,-12.49,-13.65,-13.65,0,*6F
1513897530.56,57389,7.56,73388.0,-12.49,-13.65,-13.65,0,*6E
1513897531.78,57390,7.56,73388.5,-12.51,-13.55,-13.55,0,*6F
1513897533.02,57391,7.56,73386.0,-12.49,-13.55,-13.55,0,*67
1513897534.26,57392,7.56,73396.5,-12.49,-13.55,-13.55,0,*64
1513897535.5,57393,7.56,73384.5,-12.49,-13.55,-13.51,0,*61
1513897536.74,57394,7.56,73368.3,-12.49,-13.43,-13.43,0,*62
1513897538.01,57395,7.56,73336.3,-12.51,-13.33,-13.33,0,*6A
1513897539.27,57396,7.56,73340.3,-12.51,-13.37,-13.37,0,*69
1513897540.54,57397,7.56,73362.8,-12.51,-13.37,-13.37,0,*68
1513897541.8,57398,7.56,73386.3,-12.49,-13.37,-13.43,0,*6D
1513897543.04,57399,7.56,73386.8,-12.51,-13.37,-13.43,0,*65
1513897544.28,57400,7.56,73382.3,-12.49,-13.43,-13.51,0,*6B
1513897545.51,57401,7.56,73370.0,-12.51,-13.51,-13.51,0,*60
1513897546.75,57402,7.56,73354.0,-12.49,-13.65,-13.65,0,*6A
1513897547.98,57403,7.56,73374.8,-12.49,-13.65,-13.65,0,*6B
1513897549.22,57404,7.56,73382.5,-12.49,-13.55,-13.65,0,*6F
1513897550.44,57405,7.56,73356.5,-12.51,-13.69,-13.65,0,*68
1513897551.67,57406,7.56,73364.5,-12.49,-13.65,-13.69,0,*62
1513897552.93,57407,7.56,73328.5,-12.49,-13.69,-13.79,0,*6E
1513897554.17,57408,7.56,73378.0,-12.49,-13.69,-13.69,0,*60
1513897555.4,57409,7.56,73440.3,-12.49,-13.69,-13.69,0,*61
1513897556.64,57410,7.56,73368.8,-12.49,-13.69,-13.65,0,*65
1513897557.88,57411,7.56,73304.8,-12.49,-13.55,-13.65,0,*6B
1513897559.12,57412,7.56,73368.0,-12.49,-13.65,-13.55,0,*68
1513897560.34,57413,7.56,73366.0,-12.51,-13.55,-13.65,0,*60
1513897561.58,57414,7.56,73368.8,-12.49,-13.55,-13.65,0,*6E
1513897562.82,57415,7.56,73368.8,-12.49,-13.65,-13.65,0,*6C
1513897564.03,57416,7.56,73376.0,-12.51,-13.69,-13.65,0,*6A
1513897565.27,57417,7.56,73374.3,-12.49,-13.69,-13.69,0,*6E
1513897566.48,57418,7.56,73380.0,-12.51,-13.69,-13.69,0,*68
1513897567.76,57419,7.56,73376.3,-12.49,-13.79,-13.79,0,*60
1513897569.02,57420,7.56,73388.0,-12.49,-13.69,-13.79,0,*6B
1513897570.26,57421,7.56,73398.5,-12.51,-13.69,-13.79,0,*63
1513897571.52,57422,7.56,73396.3,-12.51,-13.79,-13.79,0,*61
1513897572.73,57423,7.56,73398.0,-12.51,-13.69,-13.69,0,*60
1513897573.99,57424,7.56,73396.8,-12.49,-13.69,-13.79,0,*6F
1513897575.25,57425,7.56,73408.3,-12.51,-13.79,-13.83,0,*63
1513897576.52,57426,7.56,73410.5,-12.51,-13.79,-13.83,0,*60
1513897577.78,57427,7.56,73416.8,-12.51,-13.79,-13.83,0,*61
1513897579.02,57428,7.56,73406.0,-12.51,-13.79,-13.93,0,*6F
1513897580.26,57429,7.56,73372.8,-12.51,-13.83,-13.93,0,*6B
1513897581.5,57430,7.56,73390.0,-12.51,-13.93,-13.83,0,*63
1513897582.79,57431,7.56,73362.3,-12.53,-13.87,-13.83,0,*65
1513897584.05,57432,7.56,73412.5,-12.53,-13.73,-13.83,0,*6D
1513897585.3,57433,7.56,73422.3,-12.53,-13.73,-13.73,0,*63
1513897586.54,57434,7.56,73426.3,-12.53,-13.73,-13.73,0,*64
1513897587.84,57435,7.56,73408.3,-12.53,-13.83,-13.83,0,*65
1513897589.13,57436,7.56,73412.5,-12.53,-13.83,-13.83,0,*66
1513897590.43,57437,7.56,73420.0,-12.53,-13.83,-13.87,0,*63
1513897591.73,57438,7.56,73418.8,-12.53,-13.87,-13.97,0,*69
1513897593.03,57439,7.63,73416.8,-12.53,-13.87,-13.97,0,*68
1513897594.3,57440,7.56,73422.5,-12.55,-13.83,-13.87,0,*65
1513897595.59,57441,7.56,73420.5,-12.53,-13.87,-13.87,0,*66
1513897596.89,57442,7.56,73422.5,-12.53,-13.97,-13.87,0,*64
1513897598.17,57443,7.56,73424.0,-12.55,-13.97,-13.97,0,*62
1513897599.45,57444,7.56,73408.0,-12.55,-14.01,-14.01,0,*65
1513897600.75,57445,7.56,73416.8,-12.53,-13.97,-13.97,0,*62
1513897602.03,57446,7.56,73416.8,-12.55,-13.87,-13.97,0,*66
1513897603.3,57447,7.56,73416.5,-12.55,-13.97,-13.97,0,*66
1513897604.57,57448,7.56,73410.3,-12.55,-13.87,-13.87,0,*69
1513897605.87,57449,7.56,73412.5,-12.57,-13.87,-13.97,0,*6B
1513897607.14,57450,7.56,73418.0,-12.55,-13.97,-13.87,0,*61
1513897608.43,57451,7.56,73414.5,-12.57,-13.87,-13.97,0,*62
1513897609.73,57452,7.56,73400.8,-12.57,-13.87,-13.97,0,*61
1513897611.02,57453,7.56,73402.8,-12.57,-13.87,-13.97,0,*60
1513897612.3,57454,7.56,73392.0,-12.55,-13.97,-13.97,0,*64
1513897613.57,57455,7.56,73396.3,-12.59,-13.79,-13.87,0,*68
1513897614.81,57456,7.56,73398.5,-12.57,-13.73,-13.73,0,*64
1513897616.1,57457,7.56,73430.0,-12.57,-13.83,-13.83,0,*65
1513897617.4,57458,7.56,73410.3,-12.57,-13.83,-13.83,0,*6A
1513897618.66,57459,7.56,73372.0,-12.57,-13.47,-13.61,0,*6F
1513897619.89,57460,7.56,73354.0,-12.57,-13.47,-13.47,0,*61
1513897621.12,57461,7.56,73364.3,-12.57,-13.47,-13.47,0,*60
1513897622.35,57462,7.56,73384.8,-12.57,-13.47,-13.47,0,*63
1513897623.57,57463,7.56,73376.3,-12.55,-13.47,-13.43,0,*64
1513897624.83,57464,7.56,73384.8,-12.55,-13.37,-13.37,0,*67
1513897626.07,57465,7.56,73404.0,-12.55,-13.43,-13.37,0,*65
1513897627.29,57466,7.56,73396.8,-12.55,-13.43,-13.43,0,*65
1513897628.53,57467,7.56,73412.0,-12.53,-13.47,-13.55,0,*61
1513897629.75,57468,7.56,73410.0,-12.55,-13.47,-13.55,0,*68
1513897630.96,57469,7.56,73382.5,-12.55,-13.47,-13.55,0,*69
1513897632.18,57470,7.56,73344.5,-12.55,-13.55,-13.55,0,*62
1513897633.42,57471,7.56,73406.0,-12.53,-13.55,-13.55,0,*65
1513897634.67,57472,7.56,73408.0,-12.55,-13.55,-13.61,0,*67
1513897635.88,57473,7.56,73400.5,-12.55,-13.47,-13.47,0,*61
1513897637.14,57474,7.56,73414.8,-12.53,-13.37,-13.43,0,*63
1513897638.39,57475,7.56,73404.3,-12.55,-13.29,-13.23,0,*6D
1513897639.63,57476,7.56,73396.3,-12.53,-13.15,-13.15,0,*62
1513897640.86,57477,7.56,73372.8,-12.53,-13.15,-13.15,0,*63
1513897642.1,57478,7.56,73354.0,-12.53,-13.15,-13.15,0,*6C
1513897643.4,57479,7.56,73366.0,-12.53,-13.29,-13.29,0,*6D
1513897644.66,57480,7.56,73364.0,-12.53,-13.37,-13.43,0,*68
1513897645.9,57481,7.56,73362.0,-12.53,-13.43,-13.43,0,*6A
1513897647.14,57482,7.56,73364.5,-12.53,-13.43,-13.43,0,*69
1513897648.38,57483,7.56,73354.5,-12.53,-13.43,-13.43,0,*68
1513897649.62,57484,7.56,73342.3,-12.51,-13.37,-13.43,0,*6E
1513897650.87,57485,7.56,73340.8,-12.49,-13.51,-13.43,0,*66
1513897652.1,57486,7.56,73352.8,-12.53,-13.47,-13.47,0,*6D
1513897653.32,57487,7.56,73398.0,-12.51,-13.51,-13.65,0,*69
1513897654.57,57488,7.56,73398.5,-12.53,-13.47,-13.55,0,*60
1513897655.8,57489,7.56,73394.5,-12.53,-13.43,-13.47,0,*66
1513897657.07,57490,7.56,73388.0,-12.51,-13.33,-13.33,0,*68
1513897658.36,57491,7.56,73364.8,-12.49,-13.33,-13.37,0,*64
1513897659.63,57492,7.56,73338.0,-12.51,-13.37,-13.37,0,*6A
1513897660.84,57493,7.56,73352.3,-12.51,-13.43,-13.43,0,*6B
1513897662.06,57494,7.56,73338.3,-12.51,-13.51,-13.43,0,*6F
1513897663.31,57495,7.56,73348.3,-12.49,-13.51,-13.55,0,*60
1513897664.52,57496,7.56,73366.3,-12.51,-13.43,-13.43,0,*6E
1513897665.76,57497,7.56,73380.5,-12.49,-13.43,-13.43,0,*66
1513897666.97,57498,7.56,73372.8,-12.51,-13.43,-13.43,0,*60
1513897668.2,57499,7.56,73392.0,-12.51,-13.51,-13.51,0,*61
1513897669.41,57500,7.56,73406.5,-12.51,-13.43,-13.51,0,*63
1513897670.65,57501,7.56,73410.3,-12.49,-13.55,-13.65,0,*6B
1513897671.87,57502,7.56,73418.5,-12.51,-13.55,-13.65,0,*61
1513897673.08,57503,7.56,73412.5,-12.51,-13.65,-13.69,0,*6F
1513897674.3,57504,7.56,73400.5,-12.51,-13.69,-13.65,0,*68
1513897675.51,57505,7.56,73410.8,-12.51,-13.69,-13.69,0,*65
1513897676.75,57506,7.56,73392.5,-12.51,-13.79,-13.69,0,*67
1513897678.01,57507,7.56,73408.0,-12.51,-13.79,-13.79,0,*67
1513897679.27,57508,7.56,73366.0,-12.51,-13.79,-13.79,0,*68
1513897680.51,57509,7.56,73376.3,-12.53,-13.73,-13.73,0,*6B
1513897681.78,57510,7.56,73356.8,-12.53,-13.61,-13.73,0,*60
1513897683.04,57511,7.56,73396.0,-12.53,-13.61,-13.69,0,*6A
1513897684.28,57512,7.56,73398.8,-12.53,-13.69,-13.73,0,*6A
1513897685.55,57513,7.56,73398.0,-12.55,-13.61,-13.61,0,*66
1513897686.85,57514,7.56,73398.8,-12.53,-13.61,-13.61,0,*67
1513897688.08,57515,7.56,73408.5,-12.51,-13.51,-13.55,0,*60
1513897689.34,57516,7.56,73418.0,-12.53,-13.61,-13.69,0,*6D
1513897690.61,57517,7.56,73414.8,-12.53,-13.61,-13.69,0,*6C
1513897691.85,57518,7.56,73410.8,-12.53,-13.69,-13.73,0,*60
1513897693.09,57519,7.56,73418.8,-12.53,-13.73,-13.73,0,*6A
1513897694.33,57520,7.56,73416.3,-12.53,-13.73,-13.73,0,*60
1513897695.58,57521,7.56,73424.8,-12.53,-13.73,-13.73,0,*61
1513897696.87,57522,7.56,73428.0,-12.53,-13.83,-13.83,0,*62
1513897698.14,57523,7.56,73404.3,-12.53,-13.73,-13.83,0,*6C
1513897699.43,57524,7.56,73384.8,-12.53,-13.87,-13.83,0,*60
1513897700.68,57525,7.56,73382.5,-12.53,-13.73,-13.73,0,*65